カタログに戻る

FREGAT DEB

運用中UNKNOWN
NORAD 52959·DEBRIS·🇷🇺 Russia

打ち上げ Jul 18, 2011 から Baikonur Cosmodrome

Loading…

次のパス (今後24時間)

TLE

最新Source: Space-Track

元期: Sep 13, 2026, 22:14 UTC

1 52959U 11037PN  26256.92651931  .00009248  00000-0  17672-2 0  9997
2 52959  51.4797  91.7544 1434370 190.5812 166.1551 12.23558789  4046

AllMySatでFREGAT DEBをリアルタイム追跡

Download on the App Store